EW9168 Weather Reports


Display with metric or nautical units.
time (UTC)temp
F
wind
direction
speed
MPH
gust
MPH
rain 1hr
in
rain 24hr
in
rain mn
in
humidity
%
barometer
mb
20260506133021 59 0.0 3.0 0.00 0.15 0.01 89 1007.0
20260506132021 58 0.0 2.0 0.00 0.15 0.01 91 1007.3
20260506131021 58 0.0 3.0 0.00 0.15 0.01 90 1007.5
20260506125021 58 0.0 5.0 0.00 0.15 0.01 88 1006.8
20260506124042 58 135 1.0 6.0 0.00 0.15 0.01 88 1007.4
20260506123017 58 0.0 4.0 0.00 0.15 0.01 90 1007.3
20260506122021 58 135 1.0 7.0 0.00 0.15 0.01 88 1007.3
20260506121041 58 180 3.0 9.0 0.00 0.15 0.01 89 1007.4
20260506120022 57 158 3.0 11.0 0.00 0.15 0.01 90 1007.3
20260506115021 57 180 3.0 10.0 0.00 0.15 0.01 92 1007.2
20260506114041 56 0.0 3.0 0.00 0.15 0.01 96 1007.3
20260506113017 56 0.0 1.0 0.00 0.15 0.01 97 1007.3
20260506112037 56 0.0 0.0 0.00 0.15 0.01 97 1007.5
20260506111021 55 0.0 0.0 0.00 0.15 0.01 98 1007.6
20260506110041 55 0.0 0.0 0.00 0.15 0.01 97 1007.5
20260506105021 55 0.0 0.0 0.00 0.15 0.01 97 1007.3
20260506104022 55 0.0 0.0 0.00 0.15 0.01 97 1007.4
20260506103021 55 0.0 0.0 0.00 0.15 0.01 97 1007.5
20260506102017 55 0.0 0.0 0.00 0.15 0.01 97 1007.3
20260506101021 55 0.0 0.0 0.00 0.15 0.01 96 1007.2
20260506100021 55 0.0 0.0 0.00 0.15 0.01 96 1007.3
20260506095022 55 0.0 0.0 0.00 0.15 0.01 96 1007.3
20260506094021 55 0.0 0.0 0.00 0.15 0.01 96 1007.3
20260506093019 56 0.0 0.0 0.00 0.15 0.01 96 1007.3
20260506092021 56 0.0 0.0 0.00 0.15 0.01 95 1007.5
20260506091017 56 0.0 0.0 0.00 0.15 0.01 95 1007.5
20260506090021 56 0.0 0.0 0.00 0.15 0.01 95 1007.6
20260506085021 56 0.0 0.0 0.00 0.15 0.01 96 1007.9
20260506084022 56 0.0 0.0 0.00 0.15 0.01 96 1008.3
20260506083041 56 0.0 0.0 0.00 0.15 0.01 96 1008.4
20260506082021 57 0.0 0.0 0.00 0.15 0.01 95 1008.3
20260506081021 57 0.0 1.0 0.00 0.15 0.01 95 1008.1
20260506073021 57 0.0 0.0 0.00 0.15 0.01 95 1008.5
20260506072021 57 0.0 1.0 0.00 0.15 0.01 94 1008.3
20260506071021 58 0.0 0.0 0.00 0.15 0.01 94 1008.6
20260506062021 59 0.0 0.0 0.00 0.15 0.01 93 1008.5
20260506061021 60 0.0 0.0 0.00 0.15 0.01 92 1009.0
20260506051021 58 0.0 0.0 0.01 0.15 0.01 93 1008.4
20260506045021 59 0.0 2.0 0.01 0.15 0.01 92 1008.0
20260506044018 60 0.0 0.0 0.01 0.15 0.01 91 1008.3
20260506043021 61 0.0 0.0 0.01 0.15 0.01 89 1008.4
20260506042021 62 0.0 0.0 0.00 0.14 0.00 86 1008.3
20260506041021 63 0.0 1.0 0.00 0.14 0.00 82 1008.1
20260506040041 63 0.0 0.0 0.00 0.14 0.14 81 1008.2
20260506035041 63 0.0 2.0 0.00 0.14 0.14 80 1007.9
20260506034017 62 180 1.0 6.0 0.00 0.14 0.14 81 1007.9
20260506033020 62 180 1.0 5.0 0.00 0.14 0.14 83 1007.8
20260506032020 61 135 1.0 9.0 0.00 0.14 0.14 83 1007.8
20260506031041 61 0.0 2.0 0.00 0.14 0.14 85 1007.7
20260506030040 61 0.0 1.0 0.00 0.14 0.14 86 1007.7
20260506025020 61 0.0 0.0 0.00 0.14 0.14 86 1007.6
20260506024017 61 0.0 1.0 0.00 0.14 0.14 85 1007.7
20260506023037 61 0.0 4.0 0.00 0.14 0.14 85 1007.5
20260506022020 61 0.0 3.0 0.00 0.14 0.14 85 1007.5
20260506021020 60 0.0 5.0 0.00 0.14 0.14 86 1007.5
20260506020041 59 0.0 2.0 0.00 0.14 0.14 88 1007.2
20260506015019 59 0.0 2.0 0.00 0.14 0.14 89 1007.2
20260506014021 59 0.0 1.0 0.00 0.14 0.14 90 1006.9
20260506013036 59 0.0 0.0 0.00 0.14 0.14 91 1006.9
20260506012020 59 0.0 1.0 0.00 0.14 0.14 91 1006.8
20260506011021 59 0.0 2.0 0.00 0.14 0.14 93 1006.8
20260506010020 59 0.0 1.0 0.00 0.14 0.14 94 1006.7
20260506005040 59 0.0 2.0 0.00 0.14 0.14 95 1006.5
20260506004021 59 0.0 0.0 0.00 0.14 0.14 96 1006.5
20260506003020 59 0.0 1.0 0.00 0.14 0.14 95 1006.5
20260506002037 59 0.0 0.0 0.00 0.14 0.14 95 1006.3
20260506001021 59 0.0 1.0 0.00 0.14 0.14 95 1006.5
20260506000020 59 0.0 1.0 0.00 0.14 0.14 95 1006.4
20260505235041 60 0.0 0.0 0.00 0.14 0.14 94 1006.5
20260505234021 60 0.0 1.0 0.00 0.14 0.14 93 1006.3
20260505233020 60 0.0 2.0 0.00 0.14 0.14 91 1006.0
20260505232020 61 0.0 2.0 0.00 0.14 0.14 92 1006.0
20260505231016 61 0.0 2.0 0.00 0.14 0.14 92 1005.5
20260505230020 61 0.0 2.0 0.00 0.14 0.14 93 1005.5
20260505225041 61 0.0 2.0 0.00 0.14 0.14 93 1005.6
20260505224040 61 0.0 2.0 0.00 0.14 0.14 93 1005.7
20260505223021 61 0.0 4.0 0.00 0.14 0.14 92 1005.3
20260505222020 61 0.0 4.0 0.00 0.14 0.14 93 1005.1
20260505221017 61 0.0 1.0 0.02 0.14 0.14 93 1005.3
20260505220017 62 0.0 1.0 0.02 0.14 0.14 92 1005.1
20260505215041 61 0.0 1.0 0.03 0.14 0.14 89 1004.9
20260505214040 61 203 1.0 7.0 0.14 0.14 0.14 87 1005.0
20260505213040 61 113 2.0 8.0 0.14 0.14 0.14 90 1004.7
20260505212021 61 0.0 4.0 0.14 0.14 0.14 89 1005.8
20260505211020 62 0.0 5.0 0.12 0.12 0.12 88 1005.8
20260505210016 64 293 2.0 11.0 0.12 0.12 0.12 86 1005.4
20260505205020 71 270 4.0 11.0 0.11 0.11 0.11 77 1005.2
20260505204021 77 270 6.0 18.0 0.00 0.00 0.00 51 1004.3
20260505203020 79 270 4.0 12.0 0.00 0.00 0.00 37 1002.6
20260505202021 79 225 4.0 12.0 0.00 0.00 0.00 38 1002.3
20260505201021 79 248 5.0 15.0 0.00 0.00 0.00 37 1002.1
20260505200020 79 225 3.0 8.0 0.00 0.00 0.00 38 1002.3
20260505195017 80 203 5.0 12.0 0.00 0.00 0.00 39 1002.4
20260505194040 81 225 6.0 17.0 0.00 0.00 0.00 35 1002.6
20260505193020 81 203 6.0 16.0 0.00 0.00 0.00 38 1002.4
20260505192020 81 203 7.0 15.0 0.00 0.00 0.00 36 1002.8
20260505191020 81 203 5.0 18.0 0.00 0.00 0.00 36 1002.9
20260505190020 82 203 6.0 18.0 0.00 0.00 0.00 37 1002.8
20260505185018 81 203 5.0 11.0 0.00 0.00 0.00 39 1002.9
20260505184016 80 270 5.0 13.0 0.00 0.00 0.00 38 1003.1
20260505183020 81 270 6.0 16.0 0.00 0.00 0.00 37 1003.3
20260505182021 82 270 7.0 20.0 0.00 0.00 0.00 35 1003.4
20260505181020 82 225 6.0 18.0 0.00 0.00 0.00 38 1003.8
20260505180101 81 270 6.0 21.0 0.00 0.00 0.00 38 1004.2
20260505175041 80 270 4.0 14.0 0.00 0.00 0.00 39 1003.9
20260505174017 79 225 3.0 12.0 0.00 0.00 0.00 42 1004.0
20260505173041 80 180 6.0 14.0 0.00 0.00 0.00 43 1004.3
20260505172021 80 203 6.0 20.0 0.00 0.00 0.00 42 1004.3
20260505171020 80 180 6.0 20.0 0.00 0.00 0.00 42 1004.4
20260505170020 79 203 4.0 11.0 0.00 0.00 0.00 48 1004.4
20260505165024 78 203 6.0 14.0 0.00 0.00 0.00 45 1004.7
20260505164020 78 203 5.0 14.0 0.00 0.00 0.00 42 1004.9
20260505163016 77 180 6.0 14.0 0.00 0.00 0.00 44 1005.2
20260505162020 77 180 6.0 18.0 0.00 0.00 0.00 48 1005.2
20260505161020 77 180 5.0 15.0 0.00 0.00 0.00 49 1005.4
20260505153017 75 180 5.0 10.0 0.00 0.00 0.00 49 1006.4
20260505152017 73 180 5.0 13.0 0.00 0.00 0.00 54 1006.6
20260505151021 72 203 5.0 11.0 0.00 0.00 0.00 56 1006.7